This demonstration page uses our WeatherBlox Daily Observations layout. Learn more.

Left ArrowRight Arrow

39.01783, -85.05884

Hourly Observations for October 24, 2021

Temp ( °F °C ) Dew Point ( °F °C ) Humidity (%) Winds ( mph kmh ) Pressure ( in mb ) Visibility ( mi km ) Precip ( " mm )
12:52 am 00:52 Cloudy 53 11.7 51 10.6 93 93 SE 6 9 30.01 1016 7 11 N/A
1:52 am 01:52 Cloudy with Light Rain 54 12.2 51 10.6 90 90 E 3 6 30.01 1016 4 6 0.01 0.25
2:08 am 02:08 Cloudy with Mist and Fog 54 12.2 51 10.6 90 90 ESE 3 6 30.03 1017 6 10 0.01 0.25
2:21 am 02:21 Cloudy with Mist and Fog 54 12.2 52 11.1 93 93 SSE 5 7 30.03 1017 6 10 0.01 0.25
2:52 am 02:52 Cloudy with Mist and Fog 54 12.2 52 11.1 93 93 S 5 7 30.02 1017 5 8 0.01 0.25
3:14 am 03:14 Cloudy with Mist and Fog 54 12.2 52 11.1 93 93 S 5 7 30.03 1017 5 8 N/A
3:42 am 03:42 Cloudy with Mist and Fog 54 12.2 52 11.1 93 93 SSE 5 7 30.02 1017 5 8 N/A
3:52 am 03:52 Cloudy with Mist and Fog 54 12.2 52 11.1 93 93 SSE 6 9 30.00 1016 6 10 N/A
4:52 am 04:52 Cloudy with Mist and Fog 54 12.2 51 10.6 90 90 SE 5 7 29.99 1016 6 10 N/A
5:52 am 05:52 Partly Cloudy with Mist and Fog 53 11.7 50 10 89 89 ESE 3 6 29.99 1016 5 8 N/A
6:06 am 06:06 Mostly Cloudy with Mist and Fog 53 11.7 51 10.6 93 93 ESE 7 11 30.00 1016 1 1 N/A
6:21 am 06:21 Mostly Cloudy with Mist and Fog 53 11.7 51 10.6 93 93 ESE 6 9 30.01 1016 1 1 N/A
6:33 am 06:33 Cloudy with Mist and Fog 54 12.2 51 10.6 90 90 ESE 6 9 30.01 1016 5 8 N/A
6:40 am 06:40 Cloudy with Mist and Fog 54 12.2 51 10.6 90 90 ESE 7 11 30.00 1016 3 5 N/A
6:52 am 06:52 Cloudy with Mist and Fog 54 12.2 51 10.6 90 90 ESE 8 13 30.00 1016 5 8 N/A
7:52 am 07:52 Cloudy 54 12.2 51 10.6 90 90 SE 7 11 29.98 1015 8 13 N/A
8:52 am 08:52 Cloudy 55 12.8 51 10.6 87 87 SE 8 13 29.97 1015 8 13 N/A
9:52 am 09:52 Cloudy with Light Rain 55 12.8 52 11.1 90 90 S 6 9 29.98 1015 3 5 0.05 1.27
10:18 am 10:18 Cloudy with Rain 55 12.8 52 11.1 90 90 S 9 15 30.01 1016 2 3 0.04 1.02
10:24 am 10:24 Cloudy with Light Rain 55 12.8 52 11.1 90 90 S 10 17 30.01 1016 3 5 0.06 1.52
10:50 am 10:50 Cloudy with Rain 55 13 54 12 94 94 SSE 10 17 29.98 1015 2 3 0.16 4.06
10:52 am 10:52 Cloudy with Heavy Rain 55 12.8 53 11.7 93 93 SSE 10 17 29.96 1015 2 3 0.16 4.06
11:07 am 11:07 Cloudy with Light Rain 57 13.9 54 12.2 90 90 SSE 13 20 29.97 1015 5 8 0.03 0.76
11:21 am 11:21 Cloudy with Nearby Thunderstorms 56 13.3 54 12.2 93 93 S 7 11 29.99 1016 2 3 0.04 1.02
11:39 am 11:39 Cloudy with Light Rain 57 13.9 54 12.2 90 90 SE 6 9 29.98 1015 3 4 0.08 2.03
11:52 am 11:52 Cloudy with Rain 57 13.9 54 12.2 90 90 N N/A 29.98 1015 2 2 0.12 3.05
12:02 pm 12:02 Cloudy with Light Rain 58 14.4 55 12.8 90 90 SSE 9 15 29.97 1015 3 4 0.01 0.25
12:35 pm 12:35 Cloudy 59 15 55 12.8 87 87 S 8 13 29.95 1014 7 11 0.01 0.25
12:52 pm 12:52 Cloudy 59 15 56 13.3 90 90 S 7 11 29.94 1014 8 13 0.01 0.25
1:52 pm 13:52 Cloudy with Nearby Thunderstorms 61 16.1 57 13.9 87 87 S 8 13 29.92 1013 6 10 0.00 0.00
1:58 pm 13:58 Cloudy with Nearby Thunderstorms 61 16.1 57 13.9 87 87 S 9 15 29.93 1014 2 3 0.00 0.00
2:05 pm 14:05 Cloudy with Thunderstorms 60 15.6 57 13.9 90 90 S 8 13 29.91 1013 1 2 0.08 2.03
2:17 pm 14:17 Cloudy with Mist and Fog 61 16.1 58 14.4 90 90 S 9 15 29.90 1013 5 8 0.10 2.54
2:52 pm 14:52 Cloudy with Light Rain 63 17.2 60 15.6 90 90 SSE 12 19 29.88 1012 7 11 0.10 2.54
3:00 pm 15:00 Cloudy 64 17.8 61 16.1 90 90 S 12 19 29.87 1012 8 13 0.00 0.00
3:07 pm 15:07 Mostly Cloudy 64 17.8 61 16.1 90 90 S 12 19 29.86 1011 8 13 0.00 0.00
3:52 pm 15:52 Mostly Cloudy 68 20 62 16.7 81 81 S 12 19 29.85 1011 9 14 0.00 0.00
4:52 pm 16:52 Mostly Cloudy 73 22.8 64 17.8 74 74 S 14 22 29.82 1010 10 16 N/A
5:52 pm 17:52 Partly Cloudy 73 22.8 61 16.1 66 66 S 14 22 29.81 1010 10 16 N/A
6:52 pm 18:52 Mostly Clear 70 21.1 61 16.1 73 73 S 10 17 29.81 1010 10 16 N/A
7:52 pm 19:52 Mostly Clear 68 20 60 15.6 76 76 S 10 17 29.80 1009 10 16 N/A
8:52 pm 20:52 Partly Cloudy 68 20 59 15 73 73 S 12 19 29.79 1009 10 16 N/A
9:52 pm 21:52 Cloudy 68 20 59 15 73 73 S 12 19 29.80 1009 10 16 N/A
10:52 pm 22:52 Mostly Cloudy 68 20 57 13.9 68 68 S 14 22 29.80 1009 10 16 N/A
11:52 pm 23:52 Partly Cloudy 67 19.4 55 12.8 66 66 SSW 10 17 29.80 1009 10 16 N/A

Powered by AerisWeather